sat.trackr.live / text

‹ back to catalog

SDA_1677

NORAD 65987 · 2025-230P

PAYLOAD ACTIVE UNKNOWN

§ Identity

Operator
Country
US
Launch date
2025-10-15
Launch site
AFWTR
Launch vehicle
Mass (kg)
RCS (m²)

External: N2YO · Heavens-Above · Gunter

§ Orbital elements

Epoch: 2026-09-20T14:19:35.587488Z

Period
104.49 min
Inclination
81.2986°
Eccentricity
0.0000348
Mean motion
13.78090459 rev/d
Perigee alt
970.4 km
Apogee alt
970.9 km
Semi-major
7,348.8 km
B*
1.2596e-4
RAAN
124.9652°
Arg perigee
23.3733°
Mean anomaly
336.7436°
Rev number
4,690

§ Raw data

SDA_16771 65987U 25230P   26263.59693967  .00000138  00000+0  12596-3 0  99972 65987  81.2986 124.9652 0000348  23.3733 336.7436 13.78090459 46903

JSON: /api/v1/satellites/65987 · /tle

For live sub-satellite position, see the globe view (requires WebGL).

§ Visibility from observer

Set your observer location to see the next 7 days of passes ≥ 10°. The values pass through the URL so the page stays shareable.

No JS? Fill the form by hand. The geolocation button needs JavaScript.